[[[{"header":{"parameterUnit":"kt","parameterCategory":2,"dx":1,"dy":1,"la1":30.253999710083008,"la2":30.299108505249023,"lo1":-89.0895004272461,"lo2":-89.04439544677734,"nx":28,"ny":28,"refTime":"2022-10-18T21:00:00:Z","depth":"0","parameterNumber":2,"parameterNumberName":"U-component_of_CURRENTS"},"data":[-0.1478,-0.1383,-0.1381,-0.1297,-0.1298,-0.1244,-0.1234,-0.1262,-0.1289,-0.125,-0.1182,-0.1211,-0.0857,-0.047,-0.0099,-0.0152,-0.0085,-0.0284,-0.0359,-0.0232,-0.0293,-0.0351,-0.0204,0.0235,0.0236,0.0046,0.0047,0.0047,-0.1591,-0.1564,-0.1534,-0.1507,-0.1492,-0.156,-0.158,-0.1555,-0.1565,-0.1639,-0.1701,-0.1579,-0.1503,-0.1426,-0.1233,-0.1121,-0.1214,-0.1055,-0.0972,-0.1003,-0.1329,-0.1213,-0.0981,-0.0981,-0.0982,-0.0982,-0.0982,-0.0983,-0.1782,-0.1733,-0.1693,-0.1674,-0.1694,-0.1712,-0.1684,-0.1739,-0.1762,-0.1774,-0.1896,-0.1927,-0.1913,-0.2172,-0.2207,-0.1964,-0.2303,-0.1825,-0.1803,-0.1969,-0.1874,-0.2338,-0.2389,-0.2392,-0.2394,-0.2396,-0.2398,0,-0.1898,-0.1895,-0.1857,-0.1836,-0.1831,-0.1847,-0.185,-0.1854,-0.1904,-0.1941,-0.1986,-0.2054,-0.2241,-0.2276,-0.2485,-0.2555,-0.2353,-0.2532,-0.2155,-0.1666,-0.1748,-0.172,-0.218,-0.223,-0.2232,-0.2234,-0.2235,-0.2235,-0.2025,-0.1988,-0.1969,-0.1953,-0.1938,-0.1932,-0.1934,-0.1982,-0.1984,-0.2046,-0.2041,-0.2155,-0.2217,-0.2428,-0.2526,-0.2672,-0.2537,-0.2565,-0.2468,-0.2084,-0.2019,-0.213,-0.2104,-0.2256,-0.2253,-0.2251,-0.2249,0,-0.2084,-0.2075,-0.2023,-0.2008,-0.2014,-0.1991,-0.201,-0.2015,-0.205,-0.2064,-0.2075,-0.2141,-0.2241,-0.2338,-0.2452,-0.249,-0.2485,-0.2631,-0.2401,-0.2383,-0.2102,-0.204,-0.2172,-0.2145,-0.2738,-0.2739,-0.2741,0,-0.2146,-0.2112,-0.2088,-0.2061,-0.2042,-0.204,-0.2041,-0.2051,-0.2083,-0.209,-0.2133,-0.2156,-0.222,-0.2294,-0.2343,-0.2445,-0.2445,-0.2478,-0.2487,-0.2282,-0.2267,-0.195,-0.1871,-0.2454,-0.2453,-0.2452,-0.2451,0,-0.2198,-0.2144,-0.2102,-0.209,-0.2065,-0.2059,-0.2057,-0.2075,-0.2076,-0.212,-0.2133,-0.2184,-0.2198,-0.2258,-0.2304,-0.2263,-0.2406,-0.2357,-0.2437,-0.2439,-0.2278,-0.2264,-0.1969,-0.245,-0.2449,-0.2449,-0.2449,0,-0.2227,-0.2185,-0.2128,-0.211,-0.2102,-0.2082,-0.2091,-0.2075,-0.2101,-0.2106,-0.2129,-0.2134,-0.2172,-0.2155,-0.223,-0.218,-0.2216,-0.224,-0.2244,-0.228,-0.2247,-0.2169,-0.2198,-0.1819,-0.2281,-0.228,-0.2278,0,-0.2306,-0.2222,-0.2192,-0.2144,-0.2114,-0.212,-0.2103,-0.2096,-0.2096,-0.2102,-0.2113,-0.2102,-0.2078,-0.2075,-0.2108,-0.2119,-0.217,-0.2105,-0.2185,-0.2189,-0.2233,-0.2296,-0.2081,-0.2178,-0.2258,-0.226,-0.2261,0,-0.235,-0.2266,-0.2256,-0.225,-0.2207,-0.2172,-0.2147,-0.2131,-0.2145,-0.2099,-0.2117,-0.2062,-0.2076,-0.2055,-0.2034,-0.2068,-0.2137,-0.2043,-0.2045,-0.2112,-0.2229,-0.2263,-0.228,-0.2115,-0.2117,-0.2119,-0.2245,0,-0.244,-0.2372,-0.2323,-0.2265,-0.2236,-0.219,-0.2176,-0.2152,-0.2146,-0.2136,-0.211,-0.2064,-0.2036,-0.2018,-0.1986,-0.2013,-0.2007,-0.1987,-0.1996,-0.2014,-0.2063,-0.2076,-0.1915,-0.1915,-0.1914,-0.1914,0,0,-0.2548,-0.2437,-0.2375,-0.2329,-0.2308,-0.2302,-0.227,-0.224,-0.2168,-0.2163,-0.2151,-0.2069,-0.2028,-0.2005,-0.1996,-0.1952,-0.1969,-0.1944,-0.1987,-0.1995,-0.2003,-0.2052,-0.2064,-0.1913,-0.1913,-0.1913,-0.1913,0,-0.2564,-0.2486,-0.2403,-0.2376,-0.2329,-0.2305,-0.2303,-0.2245,-0.2233,-0.2166,-0.2156,-0.2134,-0.2013,-0.2005,-0.1981,-0.1945,-0.1952,-0.1912,-0.1941,-0.1982,-0.199,-0.1998,-0.2048,-0.206,-0.1912,-0.1912,-0.1912,0,-0.2651,-0.2578,-0.2516,-0.2415,-0.238,-0.2344,-0.2351,-0.2291,-0.2272,-0.2232,-0.217,-0.2132,-0.2076,-0.2008,-0.1978,-0.1976,-0.1949,-0.1911,-0.1912,-0.1932,-0.1975,-0.1984,-0.1991,-0.1898,-0.1898,-0.1899,0,0,-0.2683,-0.2576,-0.2519,-0.2419,-0.2402,-0.2367,-0.2333,-0.2321,-0.2265,-0.2245,-0.2195,-0.2145,-0.2095,-0.206,-0.1997,-0.1922,-0.1949,-0.1912,-0.1912,-0.1913,-0.1933,-0.1975,-0.1983,-0.1899,-0.1899,-0.1899,0,0,-0.2698,-0.2582,-0.2586,-0.2458,-0.2423,-0.2347,-0.2302,-0.2307,-0.2251,-0.2254,-0.2209,-0.2191,-0.2129,-0.2087,-0.2101,-0.2011,-0.2007,-0.2001,-0.2039,-0.2038,-0.2039,-0.2082,-0.2089,0,0,0,0,0,-0.2692,-0.2594,-0.2599,-0.2572,-0.2426,-0.2347,-0.2331,-0.2303,-0.2327,-0.2303,-0.2259,-0.2246,-0.2091,-0.2102,-0.2078,-0.2071,-0.1907,-0.1906,-0.1905,-0.1935,-0.1936,-0.1936,0,0,0,0,0,0,-0.268,-0.2646,-0.2602,-0.2518,-0.2486,-0.2348,-0.2364,-0.2354,-0.2329,-0.2331,-0.2254,-0.2242,-0.2199,-0.2111,-0.209,-0.2085,-0.2096,-0.1907,-0.1906,-0.1904,-0.1935,-0.1936,-0.1936,0,0,0,0,0,-0.2672,-0.2644,-0.2412,-0.252,-0.2492,-0.2436,-0.2367,-0.2359,-0.2343,-0.2262,-0.2252,-0.2329,-0.2198,-0.2179,-0.2099,-0.2097,-0.211,-0.2103,-0.1906,-0.1905,-0.1904,-0.1936,0,0,0,0,0,0,-0.2665,-0.2638,-0.2406,-0.2398,-0.2549,-0.2444,-0.2425,-0.2363,-0.2275,-0.2264,-0.2333,-0.2335,-0.2197,-0.2182,-0.2168,-0.2104,-0.2122,-0.2114,-0.2109,-0.1905,-0.1904,-0.1904,0,0,0,0,0,0,-0.2653,-0.263,-0.2402,-0.2439,-0.2435,-0.2452,-0.2435,-0.2347,-0.2274,-0.235,-0.235,-0.2335,-0.2221,-0.2184,-0.2173,-0.2037,-0.213,-0.2123,-0.2118,-0.2115,-0.1905,-0.1904,0,0,0,0,0,0,-0.2643,-0.2623,-0.2441,-0.2438,-0.2434,-0.2335,-0.2375,-0.2226,-0.2307,-0.2354,-0.2314,-0.2317,-0.2222,-0.221,-0.2176,-0.2045,-0.2039,-0.213,-0.2125,-0.2122,-0.2119,0,0,0,0,0,0,0,-0.2635,-0.2767,-0.2459,-0.2437,-0.2433,-0.2319,-0.2316,-0.2314,-0.2308,-0.231,-0.2313,-0.2315,-0.2172,-0.2164,-0.2156,-0.2052,0,0,-0.2131,-0.2127,0,0,0,0,0,0,0,0,-0.2775,-0.2769,-0.2458,-0.2457,-0.2455,-0.2318,-0.2316,-0.2314,-0.2308,-0.231,-0.2312,-0.2314,-0.217,-0.2164,-0.2157,0,0,0,0,0,0,0,0,0,0,0,0,0,0,0,-0.2458,-0.2457,0,-0.2318,-0.2316,-0.2315,-0.2308,-0.231,-0.2312,-0.2314,-0.2168,-0.2163,-0.2158,0,0,0,0,0,0,0,0,0,0,0,0,0,0,0,0,0,0,0,0,0,0,0,0,0,0,0,0,0,0,0,0,0,0,0,0,0,0,0,0,0,0,0,0,0,0,0,0,0,0,0,0,0,0,0,0,0,0,0,0,0,0,0,0,0,0,0,0,0]}],[{"header":{"parameterUnit":"kt","parameterCategory":2,"dx":1,"dy":1,"la1":30.253999710083008,"la2":30.299108505249023,"lo1":-89.0895004272461,"lo2":-89.04439544677734,"nx":28,"ny":28,"refTime":"2022-10-18T21:00:00:Z","depth":"0","parameterNumber":3,"parameterNumberName":"V-component_of_CURRENTS"},"data":[-0.0985,-0.1045,-0.1101,-0.1227,-0.1304,-0.1481,-0.1627,-0.1884,-0.2021,-0.2089,-0.1916,-0.1788,-0.1108,-0.0672,-0.0182,-0.013,0.001,-0.0027,-0.005,-0.017,-0.0217,-0.0261,-0.0104,0.0186,0.0187,0.0421,0.0424,0.0427,-0.1007,-0.107,-0.1128,-0.1246,-0.134,-0.1423,-0.1667,-0.1806,-0.2053,-0.2216,-0.241,-0.2071,-0.1841,-0.1516,-0.0989,-0.0784,-0.0709,-0.0658,-0.0538,-0.0499,-0.089,-0.0749,-0.0592,-0.0592,-0.0592,-0.0592,-0.0593,-0.0593,-0.1057,-0.1089,-0.1164,-0.1234,-0.133,-0.1507,-0.1605,-0.1792,-0.1978,-0.2198,-0.2314,-0.2395,-0.2148,-0.199,-0.1911,-0.1434,-0.1574,-0.1231,-0.1189,-0.1236,-0.104,-0.1469,-0.1535,-0.1538,-0.154,-0.1541,-0.1543,0,-0.111,-0.1157,-0.119,-0.127,-0.1342,-0.1453,-0.1562,-0.1657,-0.1798,-0.1929,-0.2153,-0.2265,-0.2306,-0.2199,-0.2112,-0.2026,-0.1657,-0.1818,-0.163,-0.1097,-0.1053,-0.0938,-0.1391,-0.1521,-0.1523,-0.1525,-0.1526,-0.1527,-0.1201,-0.1195,-0.1277,-0.131,-0.1327,-0.1385,-0.1449,-0.1529,-0.1622,-0.1802,-0.1893,-0.203,-0.2147,-0.2227,-0.2088,-0.2071,-0.1919,-0.1874,-0.1689,-0.1464,-0.1369,-0.1366,-0.1276,-0.1553,-0.155,-0.1547,-0.1545,0,-0.1263,-0.1283,-0.1278,-0.1326,-0.1347,-0.1367,-0.145,-0.1515,-0.1569,-0.1698,-0.1732,-0.1825,-0.1928,-0.1923,-0.199,-0.1909,-0.1826,-0.1949,-0.1744,-0.1702,-0.1442,-0.1365,-0.1482,-0.1388,-0.1985,-0.1986,-0.1986,0,-0.1353,-0.1322,-0.1368,-0.1347,-0.1377,-0.1357,-0.1409,-0.1416,-0.1493,-0.1585,-0.1576,-0.1676,-0.1653,-0.1736,-0.1702,-0.1754,-0.1816,-0.169,-0.1677,-0.1489,-0.1467,-0.1274,-0.1182,-0.1747,-0.1745,-0.1744,-0.1742,0,-0.1499,-0.1376,-0.1364,-0.1338,-0.1316,-0.1328,-0.1328,-0.1349,-0.138,-0.1439,-0.1487,-0.1538,-0.1581,-0.1607,-0.1594,-0.1519,-0.1715,-0.1605,-0.1608,-0.1605,-0.1446,-0.1421,-0.1406,-0.174,-0.174,-0.1739,-0.1738,0,-0.1547,-0.1498,-0.139,-0.1427,-0.138,-0.1319,-0.1357,-0.13,-0.1339,-0.133,-0.1369,-0.1347,-0.1416,-0.1325,-0.1425,-0.1347,-0.1366,-0.1363,-0.137,-0.1293,-0.1188,-0.1194,-0.1341,-0.113,-0.1403,-0.14,-0.1397,0,-0.1802,-0.1613,-0.1572,-0.1441,-0.1355,-0.1318,-0.1291,-0.1231,-0.1201,-0.1197,-0.1208,-0.1184,-0.1105,-0.1101,-0.1149,-0.1126,-0.1217,-0.1097,-0.1188,-0.1192,-0.1142,-0.1314,-0.1121,-0.1298,-0.1358,-0.1362,-0.1365,0,-0.1972,-0.1843,-0.1799,-0.18,-0.1586,-0.1428,-0.136,-0.1255,-0.128,-0.1111,-0.115,-0.105,-0.104,-0.1008,-0.0955,-0.1004,-0.115,-0.0938,-0.0938,-0.1034,-0.1315,-0.1265,-0.1287,-0.1104,-0.1108,-0.1112,-0.1334,0,-0.2257,-0.214,-0.199,-0.1812,-0.1657,-0.1446,-0.1329,-0.1216,-0.1158,-0.1073,-0.1031,-0.0891,-0.083,-0.0816,-0.074,-0.0841,-0.0824,-0.076,-0.0715,-0.0822,-0.0902,-0.0927,-0.0592,-0.0589,-0.0587,-0.0585,0,0,-0.2533,-0.2348,-0.2174,-0.199,-0.1882,-0.1699,-0.1537,-0.1378,-0.1042,-0.103,-0.097,-0.0796,-0.0684,-0.0693,-0.0716,-0.0618,-0.0648,-0.0608,-0.0752,-0.0771,-0.0788,-0.0871,-0.0897,-0.0581,-0.0581,-0.058,-0.0579,0,-0.2608,-0.2485,-0.2309,-0.2137,-0.1849,-0.1695,-0.1639,-0.1286,-0.1189,-0.0988,-0.0942,-0.0885,-0.0631,-0.0618,-0.0584,-0.0582,-0.0561,-0.0563,-0.0669,-0.0731,-0.0753,-0.0772,-0.0857,-0.0883,-0.0574,-0.0574,-0.0574,0,-0.2811,-0.2647,-0.2551,-0.2218,-0.1983,-0.179,-0.1668,-0.1354,-0.1258,-0.1084,-0.0889,-0.0795,-0.0685,-0.0575,-0.0522,-0.0495,-0.0494,-0.0414,-0.0424,-0.0447,-0.0508,-0.0532,-0.0554,-0.0279,-0.0278,-0.0278,0,0,-0.2866,-0.2708,-0.2435,-0.2211,-0.2093,-0.1787,-0.1593,-0.1443,-0.1192,-0.1073,-0.0915,-0.0799,-0.0713,-0.0634,-0.0498,-0.0356,-0.0374,-0.0382,-0.0396,-0.0408,-0.0436,-0.05,-0.0523,-0.0275,-0.0275,-0.0275,0,0,-0.2846,-0.2585,-0.2578,-0.2311,-0.2051,-0.1636,-0.1428,-0.1319,-0.1061,-0.1071,-0.092,-0.0872,-0.0755,-0.0649,-0.0637,-0.0534,-0.0477,-0.047,-0.0593,-0.0607,-0.0621,-0.0695,-0.0576,0,0,0,0,0,-0.2823,-0.2643,-0.2644,-0.2573,-0.2075,-0.1683,-0.1594,-0.1337,-0.1333,-0.1174,-0.1047,-0.0992,-0.0651,-0.0633,-0.0574,-0.0614,-0.0247,-0.0252,-0.0257,-0.0381,-0.0399,-0.0414,0,0,0,0,0,0,-0.2793,-0.2713,-0.2644,-0.2261,-0.2144,-0.1688,-0.1655,-0.1574,-0.1343,-0.1323,-0.1016,-0.0983,-0.0866,-0.0654,-0.0603,-0.0647,-0.0593,-0.0249,-0.0253,-0.0257,-0.0387,-0.0402,-0.0415,0,0,0,0,0,-0.2769,-0.2703,-0.2015,-0.2252,-0.2151,-0.1777,-0.166,-0.1593,-0.1377,-0.1153,-0.1105,-0.1207,-0.0865,-0.0815,-0.0623,-0.0676,-0.0628,-0.0609,-0.0252,-0.0255,-0.0258,-0.0395,0,0,0,0,0,0,-0.275,-0.2568,-0.1983,-0.1936,-0.2328,-0.179,-0.1712,-0.161,-0.1218,-0.1165,-0.1348,-0.134,-0.0863,-0.0825,-0.0787,-0.0698,-0.0656,-0.0637,-0.0625,-0.0255,-0.0257,-0.0259,0,0,0,0,0,0,-0.2601,-0.2532,-0.1957,-0.2069,-0.203,-0.1805,-0.1737,-0.1529,-0.1225,-0.1432,-0.1412,-0.1351,-0.1027,-0.083,-0.0801,-0.0472,-0.0678,-0.066,-0.0647,-0.0639,-0.0257,-0.0259,0,0,0,0,0,0,-0.2564,-0.2502,-0.2077,-0.2049,-0.2015,-0.1449,-0.1619,-0.1179,-0.1155,-0.1458,-0.1168,-0.1174,-0.1043,-0.1001,-0.081,-0.0495,-0.0478,-0.0677,-0.0665,-0.0656,-0.065,0,0,0,0,0,0,0,-0.2533,-0.305,-0.2288,-0.2032,-0.2002,-0.1505,-0.149,-0.1474,-0.1157,-0.1162,-0.1167,-0.1172,-0.0782,-0.0762,-0.0742,-0.0514,0,0,-0.0679,-0.067,0,0,0,0,0,0,0,0,-0.3065,-0.3054,-0.2287,-0.2279,-0.2271,-0.1503,-0.149,-0.1478,-0.1157,-0.1162,-0.1166,-0.117,-0.0777,-0.0761,-0.0744,0,0,0,0,0,0,0,0,0,0,0,0,0,0,0,-0.2286,-0.2279,0,-0.1501,-0.1491,-0.148,-0.1158,-0.1161,-0.1165,-0.1168,-0.0772,-0.0759,-0.0745,0,0,0,0,0,0,0,0,0,0,0,0,0,0,0,0,0,0,0,0,0,0,0,0,0,0,0,0,0,0,0,0,0,0,0,0,0,0,0,0,0,0,0,0,0,0,0,0,0,0,0,0,0,0,0,0,0,0,0,0,0,0,0,0,0,0,0,0,0]}]],[[{"header":{"parameterUnit":"kt","parameterCategory":2,"dx":1,"dy":1,"la1":30.253999710083008,"la2":30.299108505249023,"lo1":-89.0895004272461,"lo2":-89.04439544677734,"nx":28,"ny":28,"refTime":"2022-10-18T21:00:00:Z","depth":"2","parameterNumber":2,"parameterNumberName":"U-component_of_CURRENTS"},"data":[-0.1454,-0.1364,-0.1368,-0.1267,-0.1262,-0.121,-0.1216,-0.1277,-0.1332,-0.1415,-0.1394,-0.1619,-0.1506,-0.1008,-0.0831,-0.0508,-0.072,-0.0445,-0.1484,-0.1245,-0.1298,-0.1351,-0.1156,0,0,0,0,0,-0.1584,-0.1562,-0.1523,-0.1491,-0.1467,-0.1522,-0.1559,-0.1564,-0.1615,-0.1729,-0.1845,-0.1637,-0.1512,-0.1501,-0.1132,-0.1145,-0.1028,-0.1079,-0.0823,-0.0883,-0.0937,-0.0768,-0.0346,-0.0343,-0.0341,-0.0339,0,0,-0.1791,-0.1743,-0.1703,-0.1678,-0.1688,-0.1688,-0.1676,-0.1749,-0.1805,-0.1901,-0.2038,-0.2077,-0.2056,-0.2052,-0.1952,-0.1808,-0.2068,-0.1884,-0.1895,-0.1915,-0.1805,-0.1737,-0.1653,-0.1658,-0.1663,-0.1668,-0.1672,0,-0.1921,-0.1923,-0.1887,-0.1857,-0.1851,-0.1857,-0.1873,-0.1909,-0.2003,-0.2078,-0.2164,-0.226,-0.2366,-0.2236,-0.237,-0.236,-0.2316,-0.224,-0.2842,-0.1784,-0.1707,-0.1686,-0.1703,-0.1638,-0.1644,-0.1649,-0.1652,-0.1654,-0.2061,-0.2023,-0.2009,-0.199,-0.1974,-0.1973,-0.1984,-0.2072,-0.2095,-0.221,-0.2226,-0.235,-0.2429,-0.2614,-0.2586,-0.269,-0.2798,-0.2367,-0.2219,-0.2702,-0.2686,-0.2672,-0.2659,-0.172,-0.1711,-0.1705,-0.1699,0,-0.2124,-0.2121,-0.2068,-0.2064,-0.2071,-0.2052,-0.209,-0.2115,-0.219,-0.224,-0.2264,-0.2361,-0.2448,-0.2553,-0.2652,-0.2653,-0.2738,-0.2759,-0.228,-0.2223,-0.2662,-0.2649,-0.2795,-0.2796,-0.2797,-0.2797,-0.2798,0,-0.2193,-0.216,-0.2141,-0.2115,-0.2105,-0.2109,-0.2127,-0.2159,-0.2234,-0.2274,-0.2342,-0.2378,-0.2441,-0.2516,-0.2546,-0.2607,-0.2635,-0.2603,-0.2603,-0.2185,-0.2149,-0.2526,-0.2513,-0.2628,-0.2627,-0.2626,-0.2626,0,-0.2256,-0.2198,-0.2158,-0.2145,-0.2131,-0.2134,-0.2138,-0.2194,-0.2218,-0.23,-0.2337,-0.241,-0.2415,-0.2472,-0.249,-0.2446,-0.2592,-0.2534,-0.2561,-0.256,-0.2185,-0.2147,-0.2624,-0.2624,-0.2624,-0.2624,-0.2623,0,-0.229,-0.2256,-0.2188,-0.2188,-0.2176,-0.215,-0.2189,-0.2176,-0.2251,-0.2272,-0.2323,-0.2335,-0.2386,-0.2339,-0.2412,-0.2362,-0.2378,-0.2398,-0.2403,-0.2393,-0.2344,-0.2036,-0.2011,-0.2427,-0.2425,-0.2424,-0.2422,0,-0.2386,-0.2298,-0.2286,-0.222,-0.218,-0.2193,-0.2187,-0.2197,-0.2206,-0.2238,-0.2271,-0.227,-0.2226,-0.2223,-0.2261,-0.2262,-0.2318,-0.225,-0.2327,-0.233,-0.2332,-0.2397,-0.1933,-0.2001,-0.24,-0.2402,-0.2404,0,-0.2458,-0.2384,-0.2372,-0.2363,-0.2309,-0.2258,-0.2234,-0.2229,-0.2258,-0.2209,-0.2253,-0.2194,-0.2211,-0.2194,-0.2171,-0.2215,-0.228,-0.2177,-0.2179,-0.2243,-0.2379,-0.2367,-0.2381,-0.226,-0.2263,-0.2265,-0.2386,0,-0.2553,-0.2505,-0.2444,-0.2401,-0.235,-0.2278,-0.2262,-0.2229,-0.2217,-0.2219,-0.2207,-0.2148,-0.2132,-0.2118,-0.2079,-0.2128,-0.2118,-0.2095,-0.2108,-0.2135,-0.2179,-0.2194,-0.2016,-0.2015,-0.2015,-0.2014,0,0,-0.2679,-0.2606,-0.2562,-0.2504,-0.247,-0.2435,-0.2383,-0.2333,-0.2233,-0.2244,-0.2209,-0.2144,-0.2091,-0.2098,-0.2089,-0.2039,-0.2057,-0.2048,-0.2102,-0.2112,-0.2121,-0.2166,-0.218,-0.2013,-0.2013,-0.2013,-0.2013,0,-0.272,-0.268,-0.2614,-0.2567,-0.2486,-0.245,-0.2432,-0.2339,-0.2311,-0.2229,-0.222,-0.2199,-0.2074,-0.208,-0.2061,-0.2028,-0.2039,-0.2,-0.2051,-0.2095,-0.2106,-0.2115,-0.2161,-0.2175,-0.2011,-0.2011,-0.2011,0,-0.2829,-0.2787,-0.2749,-0.2654,-0.2579,-0.252,-0.2507,-0.24,-0.2371,-0.232,-0.2237,-0.2197,-0.2145,-0.2083,-0.2052,-0.2054,-0.204,-0.1997,-0.1999,-0.2023,-0.207,-0.2081,-0.209,-0.1973,-0.1973,-0.1974,0,0,-0.2873,-0.2814,-0.2754,-0.2662,-0.2628,-0.2546,-0.2481,-0.2448,-0.2365,-0.2322,-0.2267,-0.2215,-0.2167,-0.2133,-0.2066,-0.1995,-0.2022,-0.1995,-0.1997,-0.1999,-0.2023,-0.207,-0.2079,-0.1974,-0.1974,-0.1974,0,0,-0.2879,-0.282,-0.2827,-0.2728,-0.2651,-0.2534,-0.2447,-0.2431,-0.2333,-0.2334,-0.2287,-0.2267,-0.2196,-0.2156,-0.2168,-0.2093,-0.2084,-0.2078,-0.2124,-0.2125,-0.2127,-0.2177,-0.2165,0,0,0,0,0,-0.2914,-0.2838,-0.2847,-0.2824,-0.2671,-0.2546,-0.2517,-0.2443,-0.2453,-0.2391,-0.234,-0.233,-0.2165,-0.2173,-0.2148,-0.2154,-0.198,-0.1979,-0.1978,-0.2018,-0.202,-0.2022,0,0,0,0,0,0,-0.2905,-0.2882,-0.2847,-0.2741,-0.2705,-0.2549,-0.2559,-0.2535,-0.2458,-0.2453,-0.234,-0.2327,-0.2288,-0.2183,-0.2161,-0.2168,-0.2173,-0.1979,-0.1978,-0.1978,-0.2019,-0.2021,-0.2022,0,0,0,0,0,-0.2898,-0.2878,-0.2667,-0.2738,-0.2707,-0.2595,-0.2562,-0.2541,-0.2468,-0.239,-0.2373,-0.242,-0.2288,-0.2266,-0.217,-0.218,-0.2187,-0.2179,-0.1979,-0.1978,-0.1977,-0.202,0,0,0,0,0,0,-0.2892,-0.2833,-0.2657,-0.2642,-0.2769,-0.26,-0.2577,-0.2547,-0.2408,-0.2391,-0.247,-0.2469,-0.2287,-0.227,-0.2254,-0.2189,-0.22,-0.2191,-0.2186,-0.1978,-0.1978,-0.1977,0,0,0,0,0,0,-0.2843,-0.2821,-0.2649,-0.2692,-0.2681,-0.2605,-0.2584,-0.2495,-0.241,-0.2495,-0.249,-0.2472,-0.2338,-0.2273,-0.226,-0.2119,-0.2209,-0.2201,-0.2196,-0.2192,-0.1978,-0.1977,0,0,0,0,0,0,-0.2831,-0.2812,-0.2695,-0.2686,-0.2677,-0.2498,-0.2523,-0.2383,-0.241,-0.2503,-0.2416,-0.2419,-0.2343,-0.2327,-0.2264,-0.2128,-0.2121,-0.2209,-0.2203,-0.22,-0.2197,0,0,0,0,0,0,0,-0.2821,-0.2983,-0.2755,-0.2682,-0.2673,-0.2507,-0.2502,-0.2497,-0.2411,-0.2413,-0.2415,-0.2417,-0.2254,-0.2245,-0.2236,-0.2136,0,0,-0.2209,-0.2206,0,0,0,0,0,0,0,0,-0.2987,-0.2984,-0.2754,-0.2752,-0.2749,-0.2506,-0.2502,-0.2498,-0.2411,-0.2413,-0.2415,-0.2417,-0.2251,-0.2244,-0.2237,0,0,0,0,0,0,0,0,0,0,0,0,0,0,0,-0.2754,-0.2752,0,-0.2506,-0.2502,-0.2499,-0.2411,-0.2413,-0.2414,-0.2416,-0.2249,-0.2244,-0.2238,0,0,0,0,0,0,0,0,0,0,0,0,0,0,0,0,0,0,0,0,0,0,0,0,0,0,0,0,0,0,0,0,0,0,0,0,0,0,0,0,0,0,0,0,0,0,0,0,0,0,0,0,0,0,0,0,0,0,0,0,0,0,0,0,0,0,0,0,0]}],[{"header":{"parameterUnit":"kt","parameterCategory":2,"dx":1,"dy":1,"la1":30.253999710083008,"la2":30.299108505249023,"lo1":-89.0895004272461,"lo2":-89.04439544677734,"nx":28,"ny":28,"refTime":"2022-10-18T21:00:00:Z","depth":"2","parameterNumber":3,"parameterNumberName":"V-component_of_CURRENTS"},"data":[-0.0735,-0.0784,-0.0836,-0.0899,-0.0939,-0.0992,-0.1016,-0.1017,-0.0881,-0.0745,-0.0501,-0.0311,0.0137,0.0482,0.0669,0.0829,0.0663,0.0793,0.0568,0.0585,0.0553,0.0659,0.0789,0,0,0,0,0,-0.0761,-0.0821,-0.0858,-0.0926,-0.0956,-0.0986,-0.0978,-0.0966,-0.095,-0.0806,-0.0805,-0.0371,-0.0053,0.017,0.0598,0.073,0.0709,0.0686,0.0732,0.0707,0.0682,0.0775,0.0944,0.0942,0.0941,0.0939,0,0,-0.0815,-0.0843,-0.0906,-0.0946,-0.0978,-0.0997,-0.1015,-0.097,-0.0882,-0.0781,-0.0793,-0.0682,-0.0414,0.0005,0.0061,0.024,0.0306,0.0458,0.0448,0.0433,0.0516,0.0463,0.0617,0.0615,0.0612,0.061,0.0608,0,-0.0863,-0.0904,-0.0928,-0.0982,-0.1009,-0.1018,-0.099,-0.0917,-0.0828,-0.074,-0.0699,-0.0714,-0.0603,-0.0335,-0.0213,-0.0094,0.0029,0.0083,-0.0283,0.0426,0.0364,0.0383,0.0364,0.0495,0.0492,0.0489,0.0487,0.0486,-0.0932,-0.0934,-0.099,-0.1005,-0.1019,-0.102,-0.099,-0.0891,-0.0792,-0.0687,-0.0629,-0.0638,-0.0627,-0.0567,-0.0341,-0.0225,-0.0311,-0.0013,0.0253,-0.0097,-0.0078,-0.0083,-0.0088,0.0449,0.0453,0.0457,0.046,0,-0.0971,-0.0998,-0.0988,-0.0985,-0.0988,-0.0976,-0.0908,-0.0818,-0.0706,-0.0604,-0.0601,-0.049,-0.05,-0.047,-0.0417,-0.0308,-0.0233,-0.0232,-0.013,-0.0084,-0.0093,-0.0096,-0.0043,-0.0042,-0.0041,-0.004,-0.0039,0,-0.1031,-0.1005,-0.1046,-0.1034,-0.0995,-0.094,-0.0851,-0.0758,-0.06,-0.0495,-0.0407,-0.0366,-0.0307,-0.0325,-0.0283,-0.0245,-0.0258,-0.0081,-0.0055,0.0117,0.013,-0.0037,-0.0035,-0.0041,-0.004,-0.0039,-0.0039,0,-0.1082,-0.1038,-0.1033,-0.1009,-0.0923,-0.0891,-0.085,-0.0654,-0.0556,-0.0437,-0.0361,-0.0254,-0.0298,-0.0211,-0.0272,-0.0208,-0.0248,-0.0103,-0.0064,-0.0067,0.0161,0.0178,-0.0038,-0.0038,-0.0037,-0.0037,-0.0037,0,-0.1095,-0.1086,-0.1059,-0.0978,-0.096,-0.0911,-0.0761,-0.0685,-0.0484,-0.0405,-0.0303,-0.024,-0.0207,-0.0228,-0.0172,-0.0195,-0.0194,-0.017,-0.017,-0.0076,-0.005,0.0066,0.0084,-0.0212,-0.0213,-0.0213,-0.0214,0,-0.1153,-0.1114,-0.1064,-0.1007,-0.098,-0.0902,-0.0812,-0.0679,-0.0573,-0.0435,-0.0364,-0.0272,-0.0291,-0.029,-0.0238,-0.02,-0.0187,-0.0192,-0.0104,-0.0103,-0.006,-0.0079,0.0125,0.0067,-0.0219,-0.0219,-0.0218,0,-0.1158,-0.1112,-0.1098,-0.1078,-0.0984,-0.0942,-0.0863,-0.0729,-0.0637,-0.0535,-0.0422,-0.0338,-0.0297,-0.0242,-0.0217,-0.0172,-0.0203,-0.0189,-0.0182,-0.0238,-0.014,-0.0098,-0.0091,-0.0131,-0.0128,-0.0127,-0.0223,0,-0.1062,-0.1075,-0.1082,-0.1027,-0.0989,-0.0953,-0.0875,-0.0794,-0.0736,-0.0618,-0.0499,-0.0403,-0.0268,-0.0266,-0.0244,-0.0187,-0.0229,-0.015,-0.0092,-0.0116,-0.0166,-0.0163,-0.017,-0.0168,-0.0166,-0.0165,0,0,-0.1055,-0.106,-0.1058,-0.102,-0.1001,-0.0946,-0.0907,-0.0831,-0.0672,-0.0591,-0.0602,-0.0379,-0.0295,-0.018,-0.0212,-0.0158,-0.0166,-0.0161,-0.012,-0.0115,-0.0111,-0.0157,-0.0156,-0.0162,-0.0161,-0.0161,-0.016,0,-0.0977,-0.1045,-0.1067,-0.102,-0.0989,-0.0923,-0.0921,-0.0807,-0.0745,-0.0624,-0.0543,-0.0452,-0.0298,-0.0205,-0.0152,-0.0145,-0.011,-0.0162,-0.0194,-0.011,-0.0108,-0.0105,-0.0151,-0.0151,-0.0157,-0.0157,-0.0157,0,-0.0921,-0.0924,-0.0969,-0.0958,-0.0932,-0.0882,-0.084,-0.0803,-0.0738,-0.0607,-0.0475,-0.0398,-0.0285,-0.0193,-0.0148,-0.0121,-0.0054,-0.0057,-0.0064,-0.005,0.0041,0.0042,0.0043,0.0035,0.0035,0.0036,0,0,-0.086,-0.0904,-0.0883,-0.0947,-0.0944,-0.0865,-0.0841,-0.0777,-0.0675,-0.0619,-0.0491,-0.0382,-0.0298,-0.023,-0.0131,-0.004,-0.0001,-0.0037,-0.0046,-0.0054,-0.0045,0.0043,0.0044,0.0037,0.0037,0.0037,0,0,-0.0811,-0.0829,-0.0854,-0.0925,-0.0881,-0.0777,-0.0781,-0.072,-0.0594,-0.0589,-0.0449,-0.041,-0.0319,-0.0238,-0.0239,-0.0129,-0.0089,-0.0085,-0.0175,-0.0185,-0.0193,-0.0208,-0.0158,0,0,0,0,0,-0.078,-0.0839,-0.0865,-0.0881,-0.0865,-0.0795,-0.0775,-0.0708,-0.0692,-0.065,-0.0535,-0.0475,-0.0217,-0.0214,-0.0177,-0.0185,0.0049,0.0047,0.0045,-0.0051,-0.0062,-0.0072,0,0,0,0,0,0,-0.0786,-0.0804,-0.0862,-0.0787,-0.0785,-0.0792,-0.0746,-0.0722,-0.0693,-0.068,-0.0499,-0.047,-0.0366,-0.0225,-0.0194,-0.0204,-0.0168,0.0049,0.0047,0.0045,-0.0055,-0.0064,-0.0072,0,0,0,0,0,-0.079,-0.0805,-0.0828,-0.078,-0.0777,-0.0711,-0.0743,-0.0723,-0.0661,-0.054,-0.0508,-0.0625,-0.0369,-0.0334,-0.0206,-0.0222,-0.0189,-0.0178,0.0047,0.0046,0.0044,-0.0059,0,0,0,0,0,0,-0.0794,-0.0709,-0.0822,-0.0816,-0.0791,-0.0703,-0.0695,-0.0725,-0.0515,-0.0493,-0.0661,-0.0654,-0.037,-0.0343,-0.0317,-0.0235,-0.0206,-0.0194,-0.0187,0.0046,0.0045,0.0044,0,0,0,0,0,0,-0.0703,-0.0704,-0.0817,-0.0836,-0.0829,-0.0697,-0.0691,-0.0577,-0.0511,-0.0637,-0.0632,-0.066,-0.0416,-0.0349,-0.0328,-0.0149,-0.0219,-0.0208,-0.02,-0.0196,0.0045,0.0044,0,0,0,0,0,0,-0.07,-0.07,-0.0834,-0.0829,-0.0822,-0.0713,-0.0585,-0.0561,-0.0583,-0.0643,-0.0583,-0.0583,-0.0425,-0.0401,-0.0336,-0.0167,-0.0154,-0.0219,-0.0211,-0.0206,-0.0202,0,0,0,0,0,0,0,-0.0698,-0.0742,-0.0902,-0.0823,-0.0817,-0.076,-0.0755,-0.0749,-0.0583,-0.0583,-0.0583,-0.0583,-0.0281,-0.0269,-0.0257,-0.0182,0,0,-0.022,-0.0214,0,0,0,0,0,0,0,0,-0.0737,-0.0741,-0.0902,-0.0903,-0.0904,-0.0759,-0.0755,-0.075,-0.0583,-0.0583,-0.0583,-0.0583,-0.0278,-0.0268,-0.0259,0,0,0,0,0,0,0,0,0,0,0,0,0,0,0,-0.0902,-0.0903,0,-0.0759,-0.0755,-0.0751,-0.0583,-0.0583,-0.0583,-0.0583,-0.0275,-0.0267,-0.0259,0,0,0,0,0,0,0,0,0,0,0,0,0,0,0,0,0,0,0,0,0,0,0,0,0,0,0,0,0,0,0,0,0,0,0,0,0,0,0,0,0,0,0,0,0,0,0,0,0,0,0,0,0,0,0,0,0,0,0,0,0,0,0,0,0,0,0,0,0]}]],[[{"header":{"parameterUnit":"kt","parameterCategory":2,"dx":1,"dy":1,"la1":30.253999710083008,"la2":30.299108505249023,"lo1":-89.0895004272461,"lo2":-89.04439544677734,"nx":28,"ny":28,"refTime":"2022-10-18T21:00:00:Z","depth":"4","parameterNumber":2,"parameterNumberName":"U-component_of_CURRENTS"},"data":[-0.0673,-0.0637,-0.06,-0.0672,-0.0698,-0.0845,-0.0894,-0.0923,-0.0906,-0.0953,-0.0937,-0.0941,-0.0933,-0.0989,-0.0933,-0.0939,-0.091,-0.1005,-0.1002,-0.0992,-0.0997,-0.1002,-0.1058,0,0,0,0,0,-0.0655,-0.0619,-0.0604,-0.0642,-0.0704,-0.0785,-0.0872,-0.0902,-0.1011,-0.0977,-0.1023,-0.1004,-0.0984,-0.098,-0.0955,-0.103,-0.1032,-0.0997,-0.0985,-0.0995,-0.1001,-0.1053,0,0,0,0,0,0,-0.0656,-0.0628,-0.0633,-0.0635,-0.0711,-0.0808,-0.0836,-0.0924,-0.0987,-0.1073,-0.1045,-0.1064,-0.1083,-0.1047,-0.1043,-0.1035,-0.1,-0.0949,-0.0957,-0.0964,-0.0996,-0.1117,-0.0858,0,0,0,0,0,-0.0684,-0.0675,-0.0656,-0.0702,-0.0785,-0.081,-0.0962,-0.0978,-0.1126,-0.1154,-0.1143,-0.113,-0.1106,-0.1085,-0.1099,-0.1068,-0.111,-0.1085,-0.1087,-0.1094,-0.1195,-0.1217,-0.1241,-0.1025,-0.1026,-0.1027,-0.1027,0,-0.0689,-0.0692,-0.0723,-0.0724,-0.0814,-0.0911,-0.0997,-0.1145,-0.1195,-0.1247,-0.1252,-0.1255,-0.1275,-0.1147,-0.1184,-0.114,-0.1151,-0.1102,-0.111,-0.1208,-0.1223,-0.1247,-0.1269,-0.1032,-0.1032,-0.1031,-0.1031,0,-0.0716,-0.0723,-0.0736,-0.0856,-0.0903,-0.097,-0.1115,-0.1169,-0.1269,-0.1295,-0.1313,-0.1353,-0.1321,-0.1334,-0.1276,-0.1244,-0.1184,-0.1171,-0.1363,-0.1374,-0.1266,-0.1287,-0.1041,-0.1039,-0.1037,-0.1036,-0.1035,0,-0.0747,-0.0768,-0.0828,-0.0862,-0.092,-0.1045,-0.1132,-0.1232,-0.1333,-0.1348,-0.1419,-0.1401,-0.1412,-0.1387,-0.1417,-0.1346,-0.1297,-0.1325,-0.1314,-0.144,-0.146,-0.1353,-0.1366,-0.1253,-0.1254,-0.1255,-0.1255,0,-0.0776,-0.083,-0.0836,-0.0861,-0.0958,-0.1068,-0.1149,-0.1283,-0.1336,-0.1421,-0.1463,-0.1439,-0.1471,-0.1402,-0.1497,-0.1531,-0.1404,-0.1413,-0.1379,-0.1384,-0.1362,-0.1374,-0.1256,-0.1256,-0.1256,-0.1257,-0.1257,0,-0.0826,-0.0854,-0.0879,-0.0947,-0.0983,-0.1043,-0.118,-0.1245,-0.1353,-0.1461,-0.1506,-0.157,-0.1579,-0.1655,-0.1573,-0.1655,-0.1666,-0.1676,-0.167,-0.1574,-0.1633,-0.1661,-0.1671,-0.1674,-0.1678,-0.168,-0.1683,0,-0.0822,-0.0842,-0.0914,-0.0951,-0.0982,-0.1093,-0.1166,-0.1264,-0.1393,-0.148,-0.1563,-0.166,-0.1757,-0.1855,-0.1814,-0.1867,-0.181,-0.1913,-0.169,-0.1683,-0.1646,-0.1631,-0.1829,-0.1725,-0.172,-0.1716,-0.1713,0,-0.0828,-0.0895,-0.0917,-0.0936,-0.1037,-0.1061,-0.1176,-0.1256,-0.131,-0.1487,-0.1544,-0.1749,-0.1804,-0.1843,-0.1939,-0.1897,-0.1879,-0.1955,-0.1946,-0.1888,-0.1689,-0.1689,-0.1664,-0.1856,-0.185,-0.1846,-0.1743,0,-0.0843,-0.0889,-0.0915,-0.0977,-0.1017,-0.1061,-0.1146,-0.1254,-0.1389,-0.1445,-0.1604,-0.1758,-0.1849,-0.1936,-0.2043,-0.201,-0.2032,-0.1999,-0.1902,-0.1934,-0.1902,-0.188,-0.2109,-0.2107,-0.2105,-0.2104,0,0,-0.0837,-0.0886,-0.0945,-0.0982,-0.1006,-0.1062,-0.1101,-0.1166,-0.1324,-0.1397,-0.15,-0.1724,-0.183,-0.1877,-0.1983,-0.2047,-0.2008,-0.2012,-0.1966,-0.1952,-0.1937,-0.1904,-0.1885,-0.21,-0.21,-0.2099,-0.2098,0,-0.0855,-0.0915,-0.0945,-0.097,-0.1029,-0.1053,-0.1071,-0.1173,-0.1253,-0.1425,-0.1503,-0.1633,-0.183,-0.1859,-0.1896,-0.2029,-0.1943,-0.209,-0.2076,-0.1956,-0.1945,-0.1933,-0.19,-0.1884,-0.2094,-0.2094,-0.2094,0,-0.0866,-0.0898,-0.0912,-0.0962,-0.1,-0.1026,-0.1054,-0.1116,-0.1157,-0.1262,-0.1429,-0.1548,-0.1621,-0.1773,-0.1837,-0.18,-0.1859,-0.1915,-0.1925,-0.1838,-0.1705,-0.1695,-0.1687,-0.1779,-0.1778,-0.1778,0,0,-0.0879,-0.0913,-0.0943,-0.0964,-0.0993,-0.1032,-0.1051,-0.1096,-0.1194,-0.1253,-0.1361,-0.1478,-0.1574,-0.1642,-0.1734,-0.1854,-0.1753,-0.1879,-0.1894,-0.1906,-0.1828,-0.1699,-0.1692,-0.1774,-0.1774,-0.1774,0,0,-0.0875,-0.0922,-0.0937,-0.0978,-0.0991,-0.1027,-0.1058,-0.1082,-0.1215,-0.1277,-0.1343,-0.1377,-0.1537,-0.1553,-0.1511,-0.1686,-0.162,-0.1632,-0.1689,-0.1708,-0.1723,-0.1608,-0.1464,0,0,0,0,0,-0.0881,-0.0909,-0.0921,-0.0929,-0.0996,-0.1014,-0.1024,-0.1069,-0.1107,-0.1131,-0.1286,-0.1258,-0.1556,-0.1521,-0.1543,-0.1583,-0.1733,-0.174,-0.1747,-0.1849,-0.1869,-0.1885,0,0,0,0,0,0,-0.0884,-0.0895,-0.0919,-0.0953,-0.0967,-0.1015,-0.1049,-0.1064,-0.1106,-0.1116,-0.1239,-0.126,-0.1311,-0.1508,-0.1528,-0.1566,-0.1457,-0.1736,-0.1742,-0.1748,-0.1856,-0.1872,-0.1885,0,0,0,0,0,-0.0886,-0.0895,-0.0997,-0.0954,-0.0966,-0.1015,-0.1051,-0.1064,-0.1124,-0.119,-0.1213,-0.1155,-0.1308,-0.1333,-0.152,-0.1556,-0.1443,-0.1451,-0.174,-0.1745,-0.1749,-0.1864,0,0,0,0,0,0,-0.0887,-0.0928,-0.1,-0.1004,-0.0957,-0.1016,-0.1031,-0.1063,-0.1201,-0.1218,-0.1107,-0.1112,-0.1307,-0.1327,-0.1345,-0.1553,-0.1432,-0.1439,-0.1444,-0.1744,-0.1748,-0.1751,0,0,0,0,0,0,-0.0922,-0.0932,-0.1003,-0.1004,-0.101,-0.1015,-0.1029,-0.1105,-0.1206,-0.1116,-0.1121,-0.1108,-0.1291,-0.1322,-0.1336,-0.1452,-0.1423,-0.143,-0.1435,-0.1439,-0.1747,-0.175,0,0,0,0,0,0,-0.0926,-0.0936,-0.1005,-0.1009,-0.1014,-0.1072,-0.1088,-0.1173,-0.1148,-0.1113,-0.1151,-0.1152,-0.1285,-0.1301,-0.133,-0.1439,-0.1449,-0.1423,-0.1428,-0.1432,-0.1434,0,0,0,0,0,0,0,-0.093,-0.0865,-0.0959,-0.1013,-0.1017,-0.1035,-0.1038,-0.104,-0.1149,-0.115,-0.1151,-0.1152,-0.138,-0.1388,-0.1397,-0.1428,0,0,-0.1422,-0.1426,0,0,0,0,0,0,0,0,-0.0862,-0.0864,-0.0959,-0.0959,-0.0959,-0.1035,-0.1037,-0.104,-0.1149,-0.115,-0.1151,-0.1151,-0.1382,-0.1389,-0.1396,0,0,0,0,0,0,0,0,0,0,0,0,0,0,0,-0.0959,-0.0959,0,-0.1035,-0.1037,-0.1039,-0.1149,-0.115,-0.115,-0.1151,-0.1384,-0.139,-0.1395,0,0,0,0,0,0,0,0,0,0,0,0,0,0,0,0,0,0,0,0,0,0,0,0,0,0,0,0,0,0,0,0,0,0,0,0,0,0,0,0,0,0,0,0,0,0,0,0,0,0,0,0,0,0,0,0,0,0,0,0,0,0,0,0,0,0,0,0,0]}],[{"header":{"parameterUnit":"kt","parameterCategory":2,"dx":1,"dy":1,"la1":30.253999710083008,"la2":30.299108505249023,"lo1":-89.0895004272461,"lo2":-89.04439544677734,"nx":28,"ny":28,"refTime":"2022-10-18T21:00:00:Z","depth":"4","parameterNumber":3,"parameterNumberName":"V-component_of_CURRENTS"},"data":[-0.035,-0.0366,-0.0378,-0.0418,-0.0451,-0.0433,-0.0334,-0.0185,-0.0051,0.014,0.0322,0.0442,0.0738,0.0738,0.1031,0.1073,0.1007,0.1397,0.1396,0.1314,0.1312,0.131,0.1063,0,0,0,0,0,-0.0337,-0.0345,-0.0369,-0.0406,-0.0407,-0.0414,-0.0255,-0.017,-0.0004,0.0213,0.0291,0.0559,0.0838,0.0956,0.1089,0.1109,0.1247,0.1249,0.1168,0.1313,0.131,0.1071,0,0,0,0,0,0,-0.0314,-0.0345,-0.037,-0.0393,-0.0399,-0.0335,-0.0283,-0.012,-0.0016,0.0245,0.0354,0.0625,0.0796,0.0988,0.1185,0.132,0.1274,0.1215,0.1218,0.1216,0.1015,0.0954,0.1178,0,0,0,0,0,-0.0296,-0.03,-0.035,-0.0382,-0.0367,-0.0361,-0.0291,-0.0203,-0.0067,0.0012,0.0297,0.049,0.0765,0.0951,0.1179,0.1325,0.126,0.1369,0.1365,0.1133,0.1102,0.1096,0.1072,0.1302,0.1301,0.1301,0.1301,0,-0.0215,-0.0272,-0.0344,-0.0361,-0.0396,-0.039,-0.0355,-0.0289,-0.0202,0.0018,0.0135,0.0411,0.0542,0.0917,0.1027,0.1279,0.1273,0.1365,0.1116,0.1096,0.1096,0.1071,0.1047,0.1299,0.1299,0.1299,0.1299,0,-0.0164,-0.0229,-0.0337,-0.0399,-0.0402,-0.0409,-0.0367,-0.0305,-0.0222,-0.0054,0.0026,0.0214,0.0449,0.062,0.0908,0.0908,0.1099,0.1181,0.1123,0.1133,0.1057,0.1033,0.1296,0.1297,0.1297,0.1298,0.1298,0,-0.0141,-0.0209,-0.0293,-0.035,-0.0377,-0.0427,-0.039,-0.0376,-0.0254,-0.014,-0.0052,0.0093,0.0251,0.0459,0.0593,0.0797,0.0853,0.0865,0.0892,0.0759,0.0739,0.0721,0.0694,0.0926,0.0923,0.092,0.0918,0,-0.0078,-0.0237,-0.0309,-0.0357,-0.0473,-0.0464,-0.047,-0.0421,-0.0373,-0.0218,-0.0109,0.0032,0.0167,0.0315,0.0503,0.0452,0.0799,0.071,0.081,0.0811,0.0695,0.0673,0.0915,0.0914,0.0914,0.0913,0.0912,0,-0.0104,-0.0199,-0.0318,-0.0408,-0.0426,-0.0478,-0.0439,-0.047,-0.0365,-0.0292,-0.0169,-0.0076,0.0073,0.0076,0.0298,0.0235,0.0391,0.0486,0.05,0.0396,0.0358,0.05,0.0665,0.0661,0.0658,0.0654,0.0652,0,0.0005,-0.0162,-0.0239,-0.0357,-0.0437,-0.0453,-0.0479,-0.0483,-0.0429,-0.0345,-0.0245,-0.0158,-0.0163,-0.0057,0.003,0.0142,0.0286,0.0136,0.0364,0.0371,0.0345,0.0481,0.0249,0.0603,0.0609,0.0614,0.0617,0,0.0077,-0.0123,-0.0127,-0.0179,-0.0297,-0.0356,-0.0402,-0.0421,-0.0385,-0.0377,-0.0278,-0.025,-0.0162,-0.0154,-0.01,-0.0,0.0218,0.0053,0.0054,0.0236,0.0492,0.0433,0.0457,0.0233,0.0236,0.0239,0.0583,0,0.0076,-0.0008,-0.0067,-0.0189,-0.0245,-0.0328,-0.0374,-0.0399,-0.0366,-0.036,-0.0296,-0.0284,-0.0241,-0.0216,-0.0188,-0.0081,-0.002,-0.0081,-0.0077,-0.0015,0.0126,0.0153,-0.0204,-0.0207,-0.0209,-0.0211,0,0,0.0223,0.0091,0.0029,-0.0072,-0.0112,-0.0153,-0.023,-0.0277,-0.0367,-0.0334,-0.0313,-0.0285,-0.03,-0.0246,-0.0202,-0.0247,-0.015,-0.0184,-0.0075,-0.006,-0.0045,0.0094,0.0122,-0.0215,-0.0216,-0.0216,-0.0217,0,0.0202,0.0165,0.0074,0.0001,-0.0096,-0.0146,-0.0167,-0.0266,-0.0271,-0.0318,-0.0294,-0.0259,-0.0301,-0.0279,-0.0272,-0.027,-0.0198,-0.0254,-0.0169,-0.0095,-0.0077,-0.0061,0.008,0.0107,-0.0222,-0.0222,-0.0222,0,0.0277,0.0197,0.0154,0.0025,-0.0033,-0.0119,-0.0113,-0.0204,-0.0251,-0.0246,-0.029,-0.0274,-0.0293,-0.029,-0.0295,-0.0299,-0.0219,-0.0303,-0.0295,-0.0305,-0.0231,-0.0212,-0.0194,-0.0406,-0.0406,-0.0406,0,0,0.0279,0.0193,0.0098,0.002,-0.0011,-0.009,-0.0141,-0.0174,-0.0231,-0.0248,-0.0266,-0.0277,-0.0283,-0.0279,-0.0324,-0.0341,-0.031,-0.0318,-0.0309,-0.0302,-0.0306,-0.0232,-0.0215,-0.0405,-0.0405,-0.0405,0,0,0.0274,0.0153,0.0158,0.0064,-0.002,-0.0138,-0.018,-0.0204,-0.0249,-0.0223,-0.0236,-0.024,-0.0252,-0.0291,-0.0279,-0.0282,-0.0329,-0.0334,-0.0213,-0.0204,-0.0195,-0.0181,-0.0268,0,0,0,0,0,0.0227,0.0162,0.0169,0.0145,-0.0005,-0.0139,-0.0161,-0.0196,-0.0166,-0.0211,-0.0208,-0.0206,-0.0275,-0.0265,-0.0281,-0.0229,-0.0397,-0.0398,-0.04,-0.0254,-0.0243,-0.0234,0,0,0,0,0,0,0.0217,0.0187,0.017,0.0053,0.0019,-0.0137,-0.0101,-0.0114,-0.0162,-0.0159,-0.0207,-0.0209,-0.0219,-0.0259,-0.0273,-0.0221,-0.0264,-0.0398,-0.0399,-0.04,-0.025,-0.0241,-0.0234,0,0,0,0,0,0.0208,0.0184,-0.0039,0.0053,0.0024,-0.0044,-0.0097,-0.0107,-0.0147,-0.0184,-0.0187,-0.0164,-0.0221,-0.0231,-0.0267,-0.0212,-0.0254,-0.0259,-0.0398,-0.0399,-0.04,-0.0246,0,0,0,0,0,0,0.0202,0.0161,-0.0046,-0.0057,0.0094,-0.0036,-0.0056,-0.0102,-0.0168,-0.0174,-0.014,-0.0136,-0.0224,-0.023,-0.0238,-0.0205,-0.0247,-0.0252,-0.0255,-0.0399,-0.04,-0.0401,0,0,0,0,0,0,0.0174,0.0152,-0.0052,0.0002,-0.0004,-0.0029,-0.0046,-0.011,-0.0165,-0.012,-0.012,-0.0137,-0.0179,-0.0231,-0.0237,-0.034,-0.0241,-0.0246,-0.0249,-0.0251,-0.04,-0.04,0,0,0,0,0,0,0.0164,0.0144,0.0004,-0.0,-0.0005,-0.0138,-0.0084,-0.0216,-0.0176,-0.0115,-0.0167,-0.0162,-0.0177,-0.0186,-0.0236,-0.0337,-0.0339,-0.0241,-0.0244,-0.0247,-0.0248,0,0,0,0,0,0,0,0.0155,0.03,0.0026,-0.0002,-0.0006,-0.0161,-0.0165,-0.0168,-0.0175,-0.0171,-0.0168,-0.0164,-0.0213,-0.0218,-0.0224,-0.0335,0,0,-0.0241,-0.0243,0,0,0,0,0,0,0,0,0.0306,0.0301,0.0026,0.0023,0.0021,-0.0162,-0.0165,-0.0168,-0.0175,-0.0171,-0.0168,-0.0165,-0.0214,-0.0219,-0.0223,0,0,0,0,0,0,0,0,0,0,0,0,0,0,0,0.0025,0.0024,0,-0.0162,-0.0165,-0.0167,-0.0174,-0.0172,-0.0169,-0.0167,-0.0216,-0.0219,-0.0223,0,0,0,0,0,0,0,0,0,0,0,0,0,0,0,0,0,0,0,0,0,0,0,0,0,0,0,0,0,0,0,0,0,0,0,0,0,0,0,0,0,0,0,0,0,0,0,0,0,0,0,0,0,0,0,0,0,0,0,0,0,0,0,0,0,0,0,0,0]}]]]